Cecil Field, FL

3:06 AM EDT on July 21, 2017 (GMT -0400)
Cecil

Weather History for KVQQ - February, 2013

Change the Weather History Date:

Thursday, February 7, 2013

  Actual Average (KNIP) Record (KNIP)
Temperature  
Mean Temperature 65 °F -  
Max Temperature 75 °F 64 °F 84 °F (1999)
Min Temperature 55 °F 47 °F 35 °F (2000)
Growing Degree Days 15 (Base 50)    
Moisture  
Dew Point 61 °F    
Average Humidity 94    
Maximum Humidity 100    
Minimum Humidity 61    
Precipitation  
Precipitation 0.00 in - - ()
Sea Level Pressure  
Sea Level Pressure 29.98 in    
Wind  
Wind Speed 3 mph (South)    
Max Wind Speed 17 mph    
Max Gust Speed 23 mph    
Visibility 9 miles    
Events Rain    
Averages and records for this station are not official NWS values.
T = Trace of Precipitation, MM = Missing Value Source: NWS Daily Summary

Daily Weather History Graph

Daily Weather History Graph

Search for Another Location

Airport or City:

Trip Planner

Search our weather history database for the weather conditions in past years. The results will help you decide how hot, cold, wet, or windy it might be!

Date:

Astronomy

Feb. 07, 2013 Rise Set
Actual Time 7:13 AM EST 6:09 PM EST
Civil Twilight 6:49 AM EST 6:34 PM EST
Nautical Twilight 6:20 AM EST 7:03 PM EST
Astronomical Twilight 5:52 AM EST 7:31 PM EST
Moon 4:45 AM EST (2/7) 3:38 PM EST (2/7)
Length of Visible Light 11h 45m
Length of Day
10h 55m
Waning Crescent, 9% of the Moon is Illuminated
Feb 7
Waning Crescent
Feb 10
New
Feb 17
First Quarter
Feb 25
Full
Mar 4
Last Quarter

Hourly Weather History & Observations

Time (EST) Temp. Dew Point Humidity Pressure Visibility Wind Dir Wind Speed Gust Speed Precip Events Conditions
12:15 AM 59.0 °F 57.2 °F 94% 30.11 in 10.0 mi Calm Calm - N/A   Mostly Cloudy
12:35 AM 59.0 °F 57.2 °F 94% 30.10 in 10.0 mi Calm Calm - N/A   Mostly Cloudy
12:55 AM 59.0 °F 57.2 °F 94% 30.10 in 10.0 mi Calm Calm - N/A   Mostly Cloudy
1:15 AM 57.2 °F 57.2 °F 100% 30.10 in 10.0 mi Calm Calm - N/A   Scattered Clouds
1:55 AM 57.2 °F 57.2 °F 100% 30.10 in 10.0 mi Calm Calm - N/A   Partly Cloudy
2:15 AM 59.0 °F 57.2 °F 94% 30.10 in 10.0 mi Calm Calm - N/A   Scattered Clouds
2:35 AM 59.0 °F 57.2 °F 94% 30.10 in 10.0 mi Calm Calm - N/A   Mostly Cloudy
2:55 AM 59.0 °F 57.2 °F 94% 30.09 in 7.0 mi Calm Calm - N/A   Mostly Cloudy
3:15 AM 59.0 °F 57.2 °F 94% 30.09 in 8.0 mi Calm Calm - N/A   Mostly Cloudy
3:35 AM 57.2 °F 57.2 °F 100% 30.08 in 9.0 mi Calm Calm - N/A   Mostly Cloudy
3:55 AM 57.2 °F 57.2 °F 100% 30.08 in 8.0 mi Calm Calm - N/A   Mostly Cloudy
4:15 AM 59.0 °F 57.2 °F 94% 30.08 in 8.0 mi Calm Calm - N/A   Mostly Cloudy
4:35 AM 57.2 °F 57.2 °F 100% 30.07 in 10.0 mi Calm Calm - N/A   Partly Cloudy
4:55 AM 57.2 °F 57.2 °F 100% 30.08 in 10.0 mi Calm Calm - N/A   Partly Cloudy
5:15 AM 57.2 °F 57.2 °F 100% 30.09 in 10.0 mi Calm Calm - N/A   Partly Cloudy
5:35 AM 57.2 °F 57.2 °F 100% 30.09 in 10.0 mi Calm Calm - N/A   Scattered Clouds
5:55 AM 57.2 °F 57.2 °F 100% 30.09 in 7.0 mi Calm Calm - N/A   Partly Cloudy
6:15 AM 55.4 °F 55.4 °F 100% 30.09 in 2.5 mi Calm Calm - N/A   Partly Cloudy
6:35 AM 55.4 °F 55.4 °F 100% 30.08 in 5.0 mi Calm Calm - N/A   Clear
7:50 AM 55.4 °F 55.4 °F 100% 30.06 in 7.0 mi Calm Calm - N/A   Clear
8:50 AM 62.6 °F 62.6 °F 100% 30.07 in 10.0 mi South 4.6 mph - N/A   Clear
10:50 AM 71.6 °F 62.6 °F 73% 30.04 in 10.0 mi SSE 13.8 mph - N/A   Clear
11:50 AM 71.6 °F 62.6 °F 73% 30.01 in 10.0 mi SSE 16.1 mph - N/A   Clear
12:50 PM 73.4 °F 62.6 °F 69% 29.98 in 10.0 mi SE 13.8 mph - N/A   Mostly Cloudy
1:50 PM 75.2 °F 60.8 °F 61% 29.92 in 10.0 mi South 11.5 mph - N/A   Mostly Cloudy
2:50 PM 73.4 °F 62.6 °F 69% 29.93 in 3.0 mi South 11.5 mph 23.0 mph N/A Rain Rain
3:50 PM 69.8 °F 64.4 °F 83% 29.88 in 10.0 mi South 8.1 mph - N/A   Scattered Clouds
4:30 PM 68.0 °F 66.2 °F 94% 29.83 in 3.0 mi South 17.3 mph - N/A Rain Rain
4:50 PM 66.2 °F 64.4 °F 94% 29.86 in 6.0 mi South 5.8 mph - N/A   Scattered Clouds
5:50 PM 66.2 °F 64.4 °F 94% 29.86 in 7.0 mi South 9.2 mph - N/A   Mostly Cloudy
6:50 PM 66.2 °F 64.4 °F 94% 29.86 in 7.0 mi SSW 9.2 mph - N/A   Mostly Cloudy
7:50 PM 64.4 °F 64.4 °F 100% 29.85 in 7.0 mi SSW 6.9 mph - N/A   Mostly Cloudy
8:15 PM 64.4 °F 64.4 °F 100% 29.85 in 10.0 mi South 4.6 mph - N/A   Scattered Clouds
8:35 PM 64.4 °F 64.4 °F 100% 29.85 in 10.0 mi South 5.8 mph - N/A   Mostly Cloudy
8:55 PM 64.4 °F 64.4 °F 100% 29.85 in 10.0 mi South 6.9 mph - N/A   Mostly Cloudy
9:15 PM 64.4 °F 64.4 °F 100% 29.85 in 10.0 mi South 4.6 mph - N/A   Scattered Clouds
9:35 PM 64.4 °F 64.4 °F 100% 29.86 in 10.0 mi Calm Calm - N/A   Mostly Cloudy
9:55 PM 66.2 °F 64.4 °F 94% 29.85 in 10.0 mi Calm Calm - N/A   Mostly Cloudy
10:15 PM 66.2 °F 64.4 °F 94% 29.85 in 10.0 mi SSW 10.4 mph - N/A   Overcast
10:35 PM 66.2 °F 64.4 °F 94% 29.85 in 10.0 mi SW 10.4 mph 18.4 mph N/A   Overcast
10:55 PM 66.2 °F 64.4 °F 94% 29.85 in 10.0 mi SW 11.5 mph 16.1 mph N/A   Mostly Cloudy
11:15 PM 66.2 °F 64.4 °F 94% 29.85 in 10.0 mi SSW 10.4 mph 16.1 mph N/A   Mostly Cloudy
11:35 PM 66.2 °F 64.4 °F 94% 29.86 in 10.0 mi SW 8.1 mph - N/A   Mostly Cloudy
11:55 PM 66.2 °F 64.4 °F 94% 29.86 in 10.0 mi SW 10.4 mph - N/A   Overcast